Date_and_time,latitude,longitude,wind_speed,RelWindDirFrom,WindDirFrom,air_pressure,air_temperature,relative_humidity,Temp,platform_speed_wrt_ground,air_pressure_at_mean_sea_level,platform_orientation
2019-03-11 00:00,50.630445,-96.98077,5.6,7.7,317,992.54,-8.1,59,0.68,0.0,1021.35,90.0
2019-03-11 00:10,50.63048,-96.98082,4.3,6.5,321,992.66,-8.3,60,0.68,0.0,1021.49,90.0
2019-03-11 00:20,50.6304533333333,-96.9807683333333,4.8,6.9,323,992.76,-8.7,61,0.67,0.0,1021.61,90.0
2019-03-11 00:30,50.6304516666667,-96.9807633333333,4.6,6.2,318,992.91,-9.0,62,0.68,0.0,1021.79,90.0
2019-03-11 00:40,50.6304533333333,-96.9807666666667,4.7,6.5,317,993.08,-9.3,62,0.68,0.0,1021.97,90.0
2019-03-11 00:50,50.6304533333333,-96.980765,5.2,7.2,331,993.23,-9.5,62,0.68,0.0,1022.14,90.0
2019-03-11 01:00,50.6304533333333,-96.9807666666667,5.4,7.7,328,993.32,-9.8,62,0.69,0.0,1022.25,48.3
2019-03-11 01:10,50.6304533333333,-96.98077,5.7,7.5,332,993.38,-10.0,62,0.69,0.0,1022.33,48.3
2019-03-11 01:20,50.6304516666667,-96.9807766666667,5.7,8.9,325,993.51,-10.1,62,0.70,0.0,1022.49,48.3
2019-03-11 01:30,50.6304666666667,-96.9807733333333,6.0,8.5,318,993.61,-10.2,61,0.70,0.0,1022.60,48.3
2019-03-11 01:40,50.630465,-96.9807716666667,6.7,9.0,319,993.66,-10.4,61,0.71,0.0,1022.67,48.3
2019-03-11 01:50,50.6304533333333,-96.98076,6.6,9.1,318,993.65,-10.7,62,0.70,0.0,1022.68,48.3
2019-03-11 02:00,50.6304466666667,-96.9807716666667,7.3,11.3,315,993.68,-11.0,62,0.69,0.0,1022.75,347.4
2019-03-11 02:10,50.6304516666667,-96.9807716666667,8.2,11.3,322,993.75,-11.2,62,0.70,0.0,1022.85,347.4
2019-03-11 02:20,50.6304483333333,-96.9807683333333,7.3,12.6,315,993.91,-11.5,63,0.69,0.0,1023.05,347.4
2019-03-11 02:30,50.6304483333333,-96.9807766666667,7.0,11.2,317,994.04,-11.9,64,0.68,0.0,1023.22,347.4
2019-03-11 02:40,50.6304466666667,-96.9807683333333,7.1,12.4,316,994.06,-12.1,65,0.70,0.0,1023.27,347.4
2019-03-11 02:50,50.6304483333333,-96.98078,7.4,10.5,323,994.16,-12.3,65,0.70,0.0,1023.40,347.4
2019-03-11 03:00,50.63045,-96.9807666666667,6.7,10.2,325,994.25,-12.4,65,0.70,0.0,1023.51,360.0
2019-03-11 03:10,50.6304483333333,-96.98077,7.3,10.8,331,994.34,-12.7,66,0.70,0.0,1023.63,360.0
2019-03-11 03:20,50.63045,-96.9807683333333,6.1,9.6,321,994.46,-13.0,66,0.70,0.0,1023.77,360.0
2019-03-11 03:30,50.6304516666667,-96.9807683333333,5.0,7.5,307,994.52,-13.2,67,0.69,0.0,1023.85,360.0
2019-03-11 03:40,50.630445,-96.98078,5.2,7.3,304,994.50,-13.4,67,0.68,0.0,1023.86,360.0
2019-03-11 03:50,50.6304583333333,-96.9807666666667,4.5,6.4,288,994.57,-13.5,68,0.68,0.0,1023.96,360.0
2019-03-11 04:00,50.630475,-96.9807666666667,5.1,6.5,287,994.65,-13.7,68,0.68,0.0,1024.06,360.0
2019-03-11 04:10,50.6304583333333,-96.98077,5.2,7.9,291,994.71,-13.7,68,0.68,0.0,1024.15,360.0
2019-03-11 04:20,50.6304616666667,-96.9807733333333,5.4,7.5,294,994.76,-13.8,67,0.68,0.0,1024.22,360.0
2019-03-11 04:30,50.6304283333333,-96.980775,5.1,6.9,275,994.85,-14.0,68,0.69,0.0,1024.34,360.0
2019-03-11 04:40,50.6304516666667,-96.9807766666667,5.3,7.0,272,994.85,-14.4,70,0.68,0.0,1024.37,360.0
2019-03-11 04:50,50.6304533333333,-96.9807783333333,5.0,7.0,266,994.94,-14.6,70,0.68,0.0,1024.49,360.0
2019-03-11 05:00,50.63044,-96.980765,5.2,6.5,264,995.06,-14.8,71,0.68,0.0,1024.63,131.7
2019-03-11 05:10,50.63045,-96.9807783333333,4.7,6.3,259,995.15,-14.9,71,0.68,0.0,1024.75,131.7
2019-03-11 05:20,50.6304533333333,-96.980765,4.1,5.6,254,995.27,-15.2,72,0.68,0.0,1024.91,131.7
2019-03-11 05:30,50.630455,-96.9807666666667,4.5,5.7,242,995.35,-15.6,74,0.68,0.0,1025.02,131.7
2019-03-11 05:40,50.63045,-96.9807683333333,4.5,5.8,243,995.38,-15.9,75,0.68,0.0,1025.07,131.7
2019-03-11 05:50,50.6304516666667,-96.98077,4.7,6.5,245,995.49,-16.1,75,0.68,0.0,1025.21,131.7
2019-03-11 06:00,50.630455,-96.9807716666667,5.9,7.4,251,995.56,-16.1,76,0.68,0.0,1025.28,270.0
2019-03-11 06:10,50.6304533333333,-96.980775,6.3,8.1,252,995.65,-16.2,76,0.67,0.0,1025.38,270.0
2019-03-11 06:20,50.6304533333333,-96.9807733333333,6.1,8.1,250,995.73,-16.2,76,0.67,0.0,1025.48,270.0
2019-03-11 06:30,50.6304466666667,-96.98081,6.2,7.9,251,995.79,-16.3,77,0.67,0.0,1025.56,270.0
2019-03-11 06:40,50.6304583333333,-96.9807566666667,6.4,8.4,259,995.80,-16.0,76,0.67,0.0,1025.57,270.0
2019-03-11 06:50,50.6304516666667,-96.9807633333333,6.6,8.4,254,995.84,-15.9,76,0.67,0.0,1025.61,270.0
2019-03-11 07:00,50.6304533333333,-96.9807616666667,6.4,8.1,252,995.91,-15.8,76,0.67,0.0,1025.69,360.0
2019-03-11 07:10,50.6304533333333,-96.9807683333333,6.4,8.3,259,995.93,-15.6,75,0.67,0.0,1025.72,360.0
2019-03-11 07:20,50.6304466666667,-96.9807333333333,6.0,7.3,258,995.91,-15.3,74,0.67,0.0,1025.71,360.0
2019-03-11 07:30,50.63045,-96.9807633333333,5.9,7.8,261,995.91,-15.2,74,0.67,0.0,1025.72,360.0
2019-03-11 07:40,50.6304516666667,-96.9807683333333,5.8,6.9,259,995.92,-15.2,74,0.66,0.0,1025.74,360.0
2019-03-11 07:50,50.6304516666667,-96.9807683333333,6.1,7.9,259,996.03,-15.2,74,0.64,0.0,1025.86,360.0
2019-03-11 08:00,50.630475,-96.9808016666667,5.8,7.2,260,996.03,-15.2,74,0.64,0.0,1025.85,318.8
2019-03-11 08:10,50.6304633333333,-96.9807633333333,5.3,7.3,256,995.95,-15.2,75,0.66,0.0,1025.79,318.8
2019-03-11 08:20,50.6304616666667,-96.98077,5.5,6.4,245,995.93,-15.5,76,0.68,0.0,1025.77,318.8
2019-03-11 08:30,50.63046,-96.9807733333333,6.2,7.2,237,996.04,-16.1,77,0.68,0.0,1025.91,318.8
2019-03-11 08:40,50.6304616666667,-96.9807733333333,5.8,7.2,233,996.06,-16.6,80,0.68,0.0,1025.95,318.8
2019-03-11 08:50,50.6304616666667,-96.980775,5.9,7.7,238,995.97,-16.7,80,0.69,0.0,1025.86,318.8
2019-03-11 09:00,50.63046,-96.9807733333333,5.5,7.0,234,995.89,-16.7,80,0.69,0.0,1025.76,360.0
2019-03-11 09:10,50.63046,-96.9807733333333,4.9,6.0,232,995.90,-17.0,81,0.68,0.0,1025.78,360.0
2019-03-11 09:20,50.6304633333333,-96.9807566666667,4.6,6.2,230,995.91,-17.3,82,0.68,0.0,1025.80,360.0
2019-03-11 09:30,50.6304633333333,-96.9807616666667,5.6,6.7,235,995.96,-17.2,83,0.68,0.0,1025.85,360.0
2019-03-11 09:40,50.6304633333333,-96.9807716666667,6.0,8.0,236,995.94,-17.0,83,0.67,0.0,1025.81,360.0
2019-03-11 09:50,50.6304616666667,-96.9807633333333,5.9,7.8,236,995.97,-17.0,84,0.66,0.0,1025.85,360.0
2019-03-11 10:00,50.63046,-96.980785,5.2,6.7,238,995.99,-16.9,86,0.66,0.0,1025.86,287.7
2019-03-11 10:10,50.630455,-96.9807683333333,4.9,6.1,238,995.90,-17.0,89,0.65,0.0,1025.79,287.7
2019-03-11 10:20,50.630455,-96.9807633333333,3.6,5.8,229,995.77,-17.1,90,0.64,0.0,1025.70,287.7
2019-03-11 10:30,50.630455,-96.9807616666667,2.7,3.7,191,995.71,-17.8,91,0.64,0.0,1025.71,287.7
2019-03-11 10:40,50.6304566666667,-96.9807633333333,3.1,3.7,200,995.69,-17.9,93,0.64,0.0,1025.70,287.7
2019-03-11 10:50,50.630455,-96.980765,2.2,2.8,211,995.58,-18.2,92,0.64,0.0,1025.61,287.7
2019-03-11 11:00,50.6304366666667,-96.9807533333333,2.8,3.8,198,995.59,-18.2,92,0.64,0.0,1025.64,137.5
2019-03-11 11:10,50.6304533333333,-96.9807666666667,2.4,3.1,198,995.73,-18.9,91,0.63,0.0,1025.83,137.5
2019-03-11 11:20,50.63045,-96.98077,3.6,4.7,222,995.82,-18.7,92,0.62,0.0,1025.91,137.5
2019-03-11 11:30,50.6304516666667,-96.98077,3.7,4.2,216,995.90,-18.0,93,0.61,0.0,1025.94,137.5
2019-03-11 11:40,50.6304533333333,-96.9807683333333,3.0,3.9,219,996.00,-18.1,91,0.61,0.0,1026.05,137.5
2019-03-11 11:50,50.6304533333333,-96.98077,2.9,3.7,216,996.04,-18.4,91,0.60,0.0,1026.10,137.5
2019-03-11 12:00,50.6304533333333,-96.98077,3.5,5.2,181,995.90,-18.7,91,0.60,0.0,1025.98,167.4
2019-03-11 12:10,50.6304766666667,-96.980775,5.0,7.0,168,995.75,-19.5,90,0.60,0.0,1025.88,167.4
2019-03-11 12:20,50.6304733333333,-96.9807766666667,5.7,6.6,174,995.54,-19.9,90,0.60,0.0,1025.72,167.4
2019-03-11 12:30,50.630465,-96.9807633333333,5.5,6.1,173,995.49,-20.1,89,0.60,0.0,1025.70,167.4
2019-03-11 12:40,50.6304616666667,-96.980765,5.0,5.9,173,995.42,-20.0,89,0.60,0.0,1025.64,167.4
2019-03-11 12:50,50.63046,-96.9807633333333,5.0,5.6,171,995.33,-19.9,89,0.60,0.0,1025.54,167.4
2019-03-11 13:00,50.6304583333333,-96.9807616666667,4.3,5.2,172,995.35,-20.1,89,0.61,0.0,1025.61,90.0
2019-03-11 13:10,50.6304566666667,-96.9807616666667,3.9,4.6,166,995.42,-20.4,88,0.62,0.0,1025.69,90.0
2019-03-11 13:20,50.6304583333333,-96.98076,5.1,6.4,161,995.34,-21.2,86,0.61,0.0,1025.62,90.0
2019-03-11 13:30,50.630435,-96.98076,5.9,6.9,158,995.24,-21.7,84,0.61,0.0,1025.56,90.0
2019-03-11 13:40,50.6304616666667,-96.9807666666667,4.5,5.9,171,995.34,-21.5,84,0.62,0.0,1025.66,90.0
2019-03-11 13:50,50.630465,-96.9807633333333,3.4,4.6,187,995.40,-20.3,86,0.64,0.0,1025.67,90.0
2019-03-11 14:00,50.63046,-96.980765,3.7,4.4,175,995.51,-19.6,86,0.64,0.0,1025.78,345.5
2019-03-11 14:10,50.6304616666667,-96.980765,4.1,5.2,173,995.55,-19.2,87,0.63,0.0,1025.82,345.5
2019-03-11 14:20,50.6304616666667,-96.980765,5.9,7.4,173,995.40,-18.6,88,0.64,0.0,1025.65,345.5
2019-03-11 14:30,50.6304566666667,-96.9807733333333,5.8,7.7,174,995.34,-18.0,88,0.64,0.0,1025.54,345.5
2019-03-11 14:40,50.6304583333333,-96.98077,8.0,10.6,181,995.27,-16.9,90,0.66,0.0,1025.40,345.5
2019-03-11 14:50,50.6304583333333,-96.9807683333333,7.9,10.9,178,995.26,-16.5,90,0.66,0.0,1025.38,345.5
2019-03-11 15:00,50.630455,-96.9807683333333,7.4,8.8,176,995.31,-16.4,89,0.66,0.0,1025.44,0.0
2019-03-11 15:10,50.6304566666667,-96.98077,8.8,10.7,173,995.11,-15.7,90,0.64,0.0,1025.24,0.0
2019-03-11 15:20,50.6304566666667,-96.9807683333333,8.7,11.7,176,994.98,-15.4,89,0.64,0.0,1025.12,0.0
2019-03-11 15:30,50.6304566666667,-96.9807666666667,10.2,13.6,182,994.87,-15.0,89,0.64,0.0,1024.96,0.0
2019-03-11 15:40,50.630455,-96.9807666666667,11.3,13.5,183,994.84,-14.5,89,0.64,0.0,1024.84,0.0
2019-03-11 15:50,50.630455,-96.9807666666667,10.7,12.8,185,994.91,-14.1,88,0.63,0.0,1024.85,0.0
2019-03-11 16:00,50.6304566666667,-96.9807683333333,10.2,11.9,187,995.08,-13.6,87,0.62,0.0,1024.97,192.6
2019-03-11 16:10,50.6304566666667,-96.9807683333333,11.4,13.6,178,994.69,-13.3,86,0.61,0.0,1024.51,192.6
2019-03-11 16:20,50.630455,-96.9807683333333,11.9,15.7,180,994.35,-12.6,83,0.60,0.0,1024.09,192.6
2019-03-11 16:30,50.6304366666667,-96.980785,9.9,13.6,187,994.46,-12.0,80,0.59,0.0,1024.10,192.6
2019-03-11 16:40,50.6304433333333,-96.9807733333333,10.7,14.1,182,994.56,-11.5,79,0.58,0.0,1024.15,192.6
2019-03-11 16:50,50.630445,-96.9807716666667,12.8,17.3,184,994.57,-11.2,78,0.58,0.0,1024.14,192.6
2019-03-11 17:00,50.630445,-96.98077,12.7,16.5,183,994.50,-11.0,78,0.57,0.0,1024.01,360.0
2019-03-11 17:10,50.6304466666667,-96.9807733333333,13.2,17.7,180,994.36,-10.6,77,0.57,0.0,1023.83,360.0
2019-03-11 17:20,50.6304466666667,-96.9807733333333,13.2,18.6,182,994.17,-10.2,76,0.58,0.0,1023.59,360.0
2019-03-11 17:30,50.6304616666667,-96.9807633333333,14.7,18.9,176,993.95,-10.0,75,0.57,0.0,1023.32,360.0
2019-03-11 17:40,50.6304583333333,-96.9807633333333,14.0,18.2,180,993.91,-9.7,75,0.57,0.0,1023.24,360.0
2019-03-11 17:50,50.6304566666667,-96.9807633333333,14.1,20.3,182,993.59,-9.2,73,0.57,0.0,1022.86,360.0
2019-03-11 18:00,50.6304566666667,-96.9807616666667,12.7,17.5,185,993.68,-8.6,71,0.57,0.0,1022.89,90.0
2019-03-11 18:10,50.6304416666667,-96.98079,14.7,19.2,184,993.61,-8.2,69,0.57,0.0,1022.76,90.0
2019-03-11 18:20,50.63045,-96.9807633333333,14.4,19.4,185,993.36,-8.0,70,0.57,0.0,1022.46,90.0
2019-03-11 18:30,50.63045,-96.9807633333333,13.8,17.6,184,993.02,-7.6,68,0.57,0.0,1022.06,90.0
2019-03-11 18:40,50.6304533333333,-96.98075,13.5,20.5,183,992.79,-7.4,68,0.57,0.0,1021.79,90.0
2019-03-11 18:50,50.6304516666667,-96.980755,15.4,20.5,185,992.47,-7.3,67,0.57,0.0,1021.44,90.0
2019-03-11 19:00,50.6304533333333,-96.98076,12.9,17.1,186,992.40,-7.1,67,0.57,0.0,1021.34,90.0
2019-03-11 19:10,50.6304533333333,-96.9807633333333,12.4,16.0,189,992.31,-6.8,67,0.57,0.0,1021.21,90.0
2019-03-11 19:20,50.630435,-96.9807566666667,11.5,15.5,190,992.25,-6.6,67,0.57,0.0,1021.12,90.0
2019-03-11 19:30,50.630445,-96.9807583333333,9.4,13.2,189,992.33,-6.3,66,0.57,0.0,1021.17,90.0
2019-03-11 19:40,50.6304616666667,-96.9807683333333,9.3,13.0,187,992.13,-5.8,64,0.59,0.0,1020.92,90.0
2019-03-11 19:50,50.6304566666667,-96.980745,13.0,20.8,186,991.83,-5.6,61,0.59,0.0,1020.56,90.0
2019-03-11 20:00,50.6304383333333,-96.9807883333333,15.0,18.7,185,991.58,-5.6,61,0.59,0.0,1020.28,270.0
2019-03-11 20:10,50.6304433333333,-96.9807716666667,13.6,18.3,183,991.56,-5.4,61,0.60,0.0,1020.24,270.0
2019-03-11 20:20,50.6304666666667,-96.980755,15.6,19.6,181,991.22,-5.3,61,0.60,0.0,1019.86,270.0
2019-03-11 20:30,50.6304516666667,-96.9807733333333,16.5,23.0,182,991.06,-5.5,62,0.60,0.0,1019.70,270.0
2019-03-11 20:40,50.6304483333333,-96.9807666666667,14.8,19.3,187,991.11,-5.7,65,0.60,0.0,1019.76,270.0
2019-03-11 20:50,50.6304466666667,-96.9807616666667,17.0,23.6,183,990.77,-5.8,66,0.60,0.0,1019.39,270.0
2019-03-11 21:00,50.6304566666667,-96.9807966666667,17.8,22.8,182,990.45,-6.0,67,0.60,0.0,1019.06,270.0
2019-03-11 21:10,50.6304516666667,-96.9807683333333,15.4,19.6,183,990.38,-5.8,68,0.60,0.0,1018.97,270.0
2019-03-11 21:20,50.6304483333333,-96.9807383333333,14.8,19.7,183,990.29,-5.7,70,0.61,0.0,1018.85,270.0
2019-03-11 21:30,50.6304466666667,-96.9807533333333,15.3,20.3,182,990.07,-5.7,72,0.61,0.0,1018.61,270.0
2019-03-11 21:40,50.63045,-96.9807566666667,15.2,19.7,184,989.90,-5.7,73,0.61,0.0,1018.41,270.0
2019-03-11 21:50,50.63045,-96.98076,15.6,20.1,184,989.82,-5.8,74,0.61,0.0,1018.34,270.0
2019-03-11 22:00,50.6304483333333,-96.9807616666667,16.2,20.7,183,989.59,-5.9,75,0.62,0.0,1018.10,142.0
2019-03-11 22:10,50.6304483333333,-96.9807633333333,16.9,22.7,185,989.44,-5.9,77,0.63,0.0,1017.94,142.0
2019-03-11 22:20,50.6304433333333,-96.9807666666667,15.4,20.9,185,989.44,-5.9,78,0.63,0.0,1017.95,142.0
2019-03-11 22:30,50.6304466666667,-96.9807616666667,15.4,20.0,182,989.28,-5.9,79,0.63,0.0,1017.79,142.0
2019-03-11 22:40,50.6304483333333,-96.9807633333333,16.0,21.7,181,989.10,-5.9,79,0.63,0.0,1017.62,142.0
2019-03-11 22:50,50.6304483333333,-96.98077,16.2,22.8,179,988.99,-5.9,79,0.63,0.0,1017.51,142.0
2019-03-11 23:00,50.6304483333333,-96.980765,13.6,19.3,177,988.97,-5.9,78,0.64,0.0,1017.48,73.2
2019-03-11 23:10,50.6304483333333,-96.9807666666667,13.7,19.3,171,988.83,-5.8,77,0.64,0.0,1017.32,73.2
2019-03-11 23:20,50.6304483333333,-96.9807666666667,14.8,19.6,169,988.68,-5.8,77,0.64,0.0,1017.18,73.2
2019-03-11 23:30,50.63045,-96.9807683333333,14.5,19.4,178,988.54,-6.0,78,0.65,0.0,1017.04,73.2
